Newport, AR

10:20 PM CDT on September 25, 2017 (GMT -0500)
Newport

Weather History for KM19 - January, 2013

Change the Weather History Date:

Wednesday, January 23, 2013

  Actual Average (KBVX) Record (KBVX)
Temperature  
Mean Temperature 38 °F -  
Max Temperature 52 °F 51 °F 77 °F (1967)
Min Temperature 23 °F 29 °F 3 °F (1963)
Degree Days  
Heating Degree Days 28    
Moisture  
Dew Point 29 °F    
Average Humidity 78    
Maximum Humidity 97    
Minimum Humidity 50    
Precipitation  
Precipitation 0.00 in - - ()
Sea Level Pressure  
Sea Level Pressure 30.28 in    
Wind  
Wind Speed 4 mph (SE)    
Max Wind Speed 14 mph    
Max Gust Speed 33 mph    
Visibility 10 miles    
Events      
Averages and records for this station are not official NWS values.
T = Trace of Precipitation, MM = Missing Value Source: NWS Daily Summary

Daily Weather History Graph

Daily Weather History Graph

Search for Another Location

Airport or City:

Trip Planner

Search our weather history database for the weather conditions in past years. The results will help you decide how hot, cold, wet, or windy it might be!

Date:

Astronomy

Jan. 23, 2013 Rise Set
Actual Time 7:10 AM CST 5:23 PM CST
Civil Twilight 6:43 AM CST 5:50 PM CST
Nautical Twilight 6:12 AM CST 6:21 PM CST
Astronomical Twilight 5:41 AM CST 6:51 PM CST
Moon 2:35 PM CST (1/23) 4:20 AM CST (1/23)
Length of Visible Light 11h 07m
Length of Day
10h 12m
Waxing Gibbous, 89% of the Moon is Illuminated
Jan 23
Waxing Gibbous
Jan 26
Full
Feb 3
Last Quarter
Feb 10
New
Feb 17
First Quarter

Hourly Weather History & Observations

Time (CST) Temp. Windchill Dew Point Humidity Pressure Visibility Wind Dir Wind Speed Gust Speed Precip Events Conditions
12:56 AM 25.2 °F 20.9 °F 21.0 °F 84% 30.38 in 10.0 mi NE 3.5 mph - N/A   Clear
1:56 AM 25.2 °F - 21.0 °F 84% 30.37 in 10.0 mi Calm Calm - N/A   Clear
2:56 AM 24.1 °F - 21.0 °F 88% 30.37 in 10.0 mi Calm Calm - N/A   Clear
3:56 AM 23.0 °F - 20.1 °F 89% 30.35 in 10.0 mi Calm Calm - N/A   Clear
4:56 AM 23.0 °F 18.4 °F 21.0 °F 92% 30.35 in 10.0 mi NNW 3.5 mph - N/A   Clear
5:56 AM 23.0 °F 17.0 °F 21.0 °F 92% 30.36 in 10.0 mi North 4.6 mph - N/A   Clear
6:56 AM 23.0 °F - 21.0 °F 92% 30.35 in 10.0 mi Calm Calm - N/A   Clear
7:56 AM 24.1 °F - 21.0 °F 88% 30.35 in 10.0 mi Calm Calm - N/A   Clear
9:56 AM 31.1 °F 27.7 °F 23.0 °F 72% 30.35 in 10.0 mi SE 3.5 mph - N/A   Mostly Cloudy
10:56 AM 36.9 °F 31.4 °F 26.1 °F 65% 30.34 in 10.0 mi South 6.9 mph 33.4 mph N/A   Clear
11:56 AM 41.9 °F 38.2 °F 28.0 °F 58% 30.29 in 10.0 mi Variable 5.8 mph - N/A   Clear
12:56 PM 45.0 °F - 31.1 °F 58% 30.25 in 10.0 mi North - - N/A   Clear
1:56 PM 50.9 °F - 34.0 °F 52% 30.22 in 10.0 mi SE 10.4 mph 18.4 mph N/A   Clear
2:56 PM 52.0 °F - 34.9 °F 52% 30.20 in 10.0 mi South 13.8 mph 20.7 mph N/A   Clear
3:56 PM 52.9 °F - 34.9 °F 50% 30.19 in 10.0 mi South 9.2 mph 20.7 mph N/A   Clear
4:56 PM 48.9 °F - 37.9 °F 66% 30.19 in 10.0 mi North - - N/A   Clear
5:56 PM 43.0 °F 37.2 °F 36.0 °F 76% 30.19 in 10.0 mi South 10.4 mph - N/A   Clear
6:56 PM 41.0 °F 36.4 °F 36.0 °F 82% 30.19 in 10.0 mi SE 6.9 mph - N/A   Clear
7:56 PM 39.9 °F 35.8 °F 36.0 °F 86% 30.20 in 10.0 mi ESE 5.8 mph - N/A   Clear
8:56 PM 41.9 °F - 37.9 °F 86% 30.22 in 10.0 mi Calm Calm - N/A   Clear
9:56 PM 37.9 °F 32.7 °F 34.9 °F 89% 30.23 in 10.0 mi ESE 6.9 mph - N/A   Clear
10:56 PM 36.9 °F - 34.9 °F 93% 30.25 in 10.0 mi Calm Calm - N/A   Clear
11:56 PM 34.9 °F 27.7 °F 34.0 °F 97% 30.26 in 10.0 mi NNW 9.2 mph - N/A   Partly Cloudy